Location: Ottobeuren
(47.9410°N, 10.3007°E)
Time: 00:49:47
(UTC+01:00)

Tiangong - Visible Passes

Search period start: 05 March 2024 00:00
Search period end: 15 March 2024 00:00
Orbit: 374 x 383 km, 41.5° (Epoch: 04 March)

Date Brightness Start Highest point End Pass type
(mag) Time Alt. Az. Time Alt. Az. Time Alt. Az.
05 Mar -0.5 19:32:10 10° WSW 19:34:43 23° S 19:35:41 20° SSE visible
06 Mar 0.1 20:07:20 10° WSW 20:09:10 17° SSW 20:09:10 17° SSW visible
07 Mar -0.2 19:05:33 10° WSW 19:07:58 21° S 19:10:24 10° SE visible
08 Mar 0.4 19:40:57 10° SW 19:42:29 13° SSW 19:43:56 10° S visible
